KA5ZCI Weather Reports


time (UTC)temp
F
wind
direction
speed
knots
gust
knots
rain 1hr
in
rain 24hr
in
rain mn
in
humidity
%
barometer
mb
20260505052004 63 83 0.0 0.0 0.00 0.00 0.00 82 1013.9
20260505051503 63 83 0.0 0.0 0.00 0.00 0.00 81 1013.9
20260505051004 63 83 0.0 0.9 0.00 0.00 0.00 81 1013.8
20260505050504 63 138 0.0 0.9 0.00 0.00 0.00 81 1013.7
20260505041504 64 86 0.0 0.9 0.00 0.00 0.00 78 1014.3
20260505041004 64 130 0.0 0.9 0.00 0.00 0.00 76 1014.4
20260505040503 64 121 0.9 2.6 0.00 0.00 0.00 76 1014.4
20260505040004 65 138 1.7 4.3 0.00 0.00 0.00 75 1014.4
20260505035504 65 159 1.7 2.6 0.00 0.00 0.00 75 1014.4
20260505034503 65 127 0.9 2.6 0.00 0.00 0.00 73 1014.6
20260505034004 65 152 0.9 2.6 0.00 0.00 0.00 72 1014.4
20260505033003 65 132 0.9 2.6 0.00 0.00 0.00 71 1014.4
20260505032504 66 147 1.7 4.3 0.00 0.00 0.00 70 1014.4
20260505032004 66 179 1.7 2.6 0.00 0.00 0.00 70 1014.3
20260505031004 66 148 0.9 4.3 0.00 0.00 0.00 70 1014.1
20260505030004 66 148 1.7 4.3 0.00 0.00 0.00 69 1014.2
20260505025503 66 150 1.7 5.2 0.00 0.00 0.00 69 1014.2
20260505025004 66 129 1.7 4.3 0.00 0.00 0.00 69 1014.3
20260505024503 66 137 1.7 2.6 0.00 0.00 0.00 68 1014.3
20260505023004 66 163 1.7 4.3 0.00 0.00 0.00 67 1014.3
20260505022504 66 161 1.7 4.3 0.00 0.00 0.00 66 1014.2
20260505021503 66 101 1.7 4.3 0.00 0.00 0.00 67 1014.1
20260505021004 67 132 2.6 6.1 0.00 0.00 0.00 66 1014.1
20260505020504 67 107 1.7 4.3 0.00 0.00 0.00 65 1014.2
20260505020004 67 147 2.6 4.3 0.00 0.00 0.00 65 1014.2
20260505014504 67 148 2.6 4.3 0.00 0.00 0.00 63 1014.0
20260505014004 67 154 1.7 2.6 0.00 0.00 0.00 63 1013.8
20260505013504 68 154 2.6 5.2 0.00 0.00 0.00 62 1013.8
20260505012504 68 153 2.6 6.1 0.00 0.00 0.00 60 1013.8
20260505012004 68 165 2.6 6.1 0.00 0.00 0.00 60 1013.9
20260505011504 69 182 1.7 4.3 0.00 0.00 0.00 59 1014.0
20260505011004 69 180 2.6 6.1 0.00 0.00 0.00 58 1013.8
20260505010503 69 159 1.7 4.3 0.00 0.00 0.00 58 1013.8
20260505010004 69 171 2.6 6.1 0.00 0.00 0.00 58 1013.8
20260505005504 70 160 2.6 5.2 0.00 0.00 0.00 56 1013.7
20260505005004 70 163 2.6 5.2 0.00 0.00 0.00 56 1013.8
20260505004504 70 134 2.6 5.2 0.00 0.00 0.00 55 1014.0
20260505004004 71 129 1.7 2.6 0.00 0.00 0.00 55 1014.2
20260505003504 71 156 1.7 4.3 0.00 0.00 0.00 54 1014.1
20260505003004 71 175 1.7 4.3 0.00 0.00 0.00 52 1014.0
20260505002004 72 155 2.6 5.2 0.00 0.00 0.00 50 1014.2
20260505001003 73 157 1.7 4.3 0.00 0.00 0.00 49 1014.2
20260505000504 73 171 2.6 5.2 0.00 0.00 0.00 48 1014.2
20260504235504 74 182 1.7 5.2 0.00 0.00 0.00 45 1014.2
20260504235004 74 191 1.7 5.2 0.00 0.00 0.00 44 1014.1
20260504234504 74 174 1.7 5.2 0.00 0.00 0.00 42 1014.2
20260504234003 74 196 4.3 7.0 0.00 0.00 0.00 41 1014.4
20260504233504 75 173 2.6 6.1 0.00 0.00 0.00 42 1014.5
20260504233004 75 144 5.2 8.7 0.00 0.00 0.00 42 1014.6
20260504232504 75 170 2.6 7.0 0.00 0.00 0.00 44 1014.7
20260504232003 75 135 4.3 8.7 0.00 0.00 0.00 44 1014.7
20260504231504 75 155 3.5 6.1 0.00 0.00 0.00 44 1014.6
20260504231004 76 134 3.5 10.4 0.00 0.00 0.00 44 1014.6
20260504224504 76 153 5.2 11.3 0.00 0.00 0.00 42 1014.6
20260504224004 76 164 4.3 7.8 0.00 0.00 0.00 43 1014.7
20260504223504 77 133 3.5 8.7 0.00 0.00 0.00 42 1014.8
20260504223004 77 125 3.5 8.7 0.00 0.00 0.00 42 1014.8
20260504222004 78 145 4.3 8.7 0.00 0.00 0.00 41 1015.0
20260504221504 78 133 6.1 11.3 0.00 0.00 0.00 40 1015.1
20260504221004 78 115 1.7 6.1 0.00 0.00 0.00 41 1015.2
20260504220504 78 179 4.3 10.4 0.00 0.00 0.00 39 1015.2
20260504220003 79 147 4.3 8.7 0.00 0.00 0.00 40 1015.3
20260504215004 79 182 6.1 11.3 0.00 0.00 0.00 38 1015.2
20260504214505 79 139 1.7 10.4 0.00 0.00 0.00 39 1015.2
20260504214004 79 158 5.2 10.4 0.00 0.00 0.00 38 1015.1
20260504213504 79 179 4.3 8.7 0.00 0.00 0.00 37 1015.2
20260504213004 79 141 4.3 8.7 0.00 0.00 0.00 37 1015.3
20260504212504 79 158 3.5 7.0 0.00 0.00 0.00 38 1015.3
20260504211004 80 157 4.3 7.8 0.00 0.00 0.00 36 1015.6
20260504210504 80 224 5.2 10.4 0.00 0.00 0.00 35 1015.7
20260504210004 80 152 2.6 7.0 0.00 0.00 0.00 38 1015.3
20260504205504 80 200 5.2 8.7 0.00 0.00 0.00 37 1015.4
20260504204504 80 239 5.2 10.4 0.00 0.00 0.00 36 1015.5
20260504204004 79 177 5.2 11.3 0.00 0.00 0.00 36 1015.6
20260504203504 80 159 3.5 8.7 0.00 0.00 0.00 35 1015.7
20260504203003 80 157 5.2 7.8 0.00 0.00 0.00 36 1015.8
20260504202504 80 263 4.3 7.0 0.00 0.00 0.00 36 1015.9
20260504202004 80 190 5.2 10.4 0.00 0.00 0.00 37 1016.0
20260504201503 80 183 4.3 7.0 0.00 0.00 0.00 39 1016.0
20260504201004 80 164 5.2 11.3 0.00 0.00 0.00 38 1016.2
20260504200003 79 34 4.3 8.7 0.00 0.00 0.00 37 1016.4
20260504195003 80 223 3.5 12.2 0.00 0.00 0.00 37 1016.6
20260504194504 80 233 5.2 11.3 0.00 0.00 0.00 36 1016.7
20260504194003 79 181 2.6 10.4 0.00 0.00 0.00 39 1016.7
20260504193504 79 170 6.1 11.3 0.00 0.00 0.00 37 1016.7
20260504193004 79 179 2.6 6.1 0.00 0.00 0.00 37 1016.8
20260504192004 80 267 5.2 7.8 0.00 0.00 0.00 37 1016.8
20260504191504 80 147 4.3 8.7 0.00 0.00 0.00 37 1017.0
20260504191004 80 174 6.1 12.2 0.00 0.00 0.00 38 1016.9
20260504185504 79 89 4.3 6.1 0.00 0.00 0.00 38 1017.0
20260504185004 79 145 4.3 12.2 0.00 0.00 0.00 37 1017.2
20260504184503 79 134 1.7 8.7 0.00 0.00 0.00 36 1017.0
20260504184004 79 187 2.6 7.0 0.00 0.00 0.00 36 1017.2
20260504183504 79 250 5.2 7.8 0.00 0.00 0.00 35 1017.4
20260504183004 79 212 5.2 11.3 0.00 0.00 0.00 37 1017.5
20260504182504 79 212 3.5 7.8 0.00 0.00 0.00 37 1017.5
20260504182004 78 149 5.2 11.3 0.00 0.00 0.00 36 1017.5
20260504181503 78 158 5.2 11.3 0.00 0.00 0.00 37 1017.5
20260504181004 78 165 4.3 7.8 0.00 0.00 0.00 37 1017.6
20260504180503 78 202 6.1 11.3 0.00 0.00 0.00 37 1017.6
20260504180004 78 202 5.2 7.8 0.00 0.00 0.00 38 1017.6
20260504175504 78 198 5.2 11.3 0.00 0.00 0.00 37 1017.5
20260504175003 78 132 3.5 7.0 0.00 0.00 0.00 39 1017.6
20260504173004 77 93 4.3 10.4 0.00 0.02 0.00 36 1017.8
20260504172004 77 161 5.2 7.0 0.00 0.02 0.00 37 1017.7
20260504171504 77 165 4.3 8.7 0.00 0.03 0.00 38 1017.7
20260504170504 77 184 6.1 11.3 0.00 0.04 0.00 36 1017.9
20260504150504 73 103 0.9 4.3 0.00 0.04 0.00 55 1018.7
20260504141003 70 301 0.0 1.7 0.00 0.04 0.00 73 1019.0
20260504140504 69 309 0.0 1.7 0.00 0.04 0.00 72 1018.8
20260504130504 63 274 0.0 0.0 0.00 0.04 0.00 86 1018.9
20260504110504 52 192 0.0 0.0 0.00 0.04 0.00 96 1017.9
20260504100504 52 192 0.0 0.0 0.00 0.04 0.00 96 1018.0
20260504082004 53 192 0.0 0.0 0.00 0.04 0.00 95 1017.9
20260504081504 53 192 0.0 0.0 0.00 0.04 0.00 95 1018.0
20260504080504 54 192 0.0 0.0 0.00 0.04 0.00 95 1017.8